[[{"header":{"parameterUnit":"m.s-1","parameterCategory":1,"la1":30.2991,"la2":30.254,"lo1":-89.0895,"lo2":-89.0444,"dy":0.0017,"dx":0.0017,"nx":28,"ny":28,"refTime":"2024-06-08T09:00:00:Z","depth":0,"parameterNumber":2,"parameterNumberName":"U-component_of_WINDS"},"data":[0,0,0,0,0,0,0,0,0,0,0,0,0,0,0,0,0,0,0,0,0,0,0,0,0,0,0,0,0,0,0,0,0,0,0,0,0,0,0,0,0,0,0,0,0,0,0,0,0,0,0,0,0,0,0,0,0,0,1.2491,1.2492,0,1.2551,1.2552,1.2553,1.2555,1.2554,1.2553,1.2552,1.2612,1.2615,1.2617,0,0,0,0,0,0,0,0,0,0,0,0,0,1.2375,1.2377,1.2491,1.2492,1.2493,1.2551,1.2552,1.2553,1.2555,1.2554,1.2553,1.2552,1.2612,1.2614,1.2617,0,0,0,0,0,0,0,0,0,0,0,0,0,1.2429,1.2378,1.2491,1.2501,1.2502,1.2551,1.2552,1.2553,1.2555,1.2554,1.2553,1.2552,1.2611,1.2614,1.2617,1.266,0,0,1.2628,1.2629,0,0,0,0,0,0,0,0,1.2426,1.2434,1.2499,1.25,1.2502,1.2544,1.2533,1.2589,1.2555,1.2535,1.2552,1.2551,1.259,1.2595,1.2609,1.2663,1.2665,1.2628,1.263,1.2632,1.2633,0,0,0,0,0,0,0,1.2423,1.2431,1.2515,1.2499,1.2501,1.2501,1.2508,1.2544,1.2568,1.2536,1.2537,1.2544,1.2591,1.2606,1.261,1.2666,1.2628,1.2631,1.2633,1.2634,1.2756,1.2757,0,0,0,0,0,0,1.2417,1.2428,1.2513,1.2517,1.2461,1.2504,1.2511,1.2532,1.2568,1.2572,1.2545,1.2544,1.26,1.2606,1.2613,1.2663,1.2632,1.2635,1.2637,1.2754,1.2756,1.2757,0,0,0,0,0,0,1.2415,1.2425,1.251,1.2472,1.2483,1.2507,1.253,1.2533,1.2548,1.2574,1.2578,1.2555,1.26,1.2608,1.2648,1.2665,1.2636,1.2639,1.2753,1.2755,1.2757,1.2766,0,0,0,0,0,0,1.2411,1.2424,1.2441,1.2473,1.2485,1.2546,1.2531,1.2535,1.2554,1.2553,1.2585,1.2589,1.26,1.2643,1.2651,1.2669,1.2642,1.2752,1.2754,1.2756,1.2764,1.2768,1.2771,0,0,0,0,0,1.2407,1.2441,1.2442,1.2452,1.2507,1.2547,1.2554,1.2566,1.2556,1.2572,1.2589,1.2588,1.2662,1.2647,1.2656,1.2676,1.275,1.2753,1.2756,1.2762,1.2767,1.2771,0,0,0,0,0,0,1.2411,1.2446,1.2447,1.2492,1.2516,1.2547,1.2568,1.257,1.2597,1.2595,1.2609,1.2616,1.2655,1.267,1.2652,1.2718,1.2705,1.271,1.2707,1.2711,1.2715,1.271,1.2645,0,0,0,0,0,1.2417,1.2447,1.2475,1.2513,1.2525,1.2545,1.2562,1.2569,1.2594,1.2604,1.2624,1.2648,1.2676,1.2695,1.2723,1.2766,1.2772,1.2784,1.2788,1.2791,1.2794,1.2816,1.2821,1.2766,1.2766,1.2766,0,0,1.243,1.2453,1.2471,1.2514,1.2533,1.2563,1.2553,1.2585,1.2606,1.2609,1.2648,1.2663,1.269,1.2732,1.2751,1.2745,1.2811,1.2794,1.2796,1.2798,1.282,1.2825,1.2829,1.2768,1.2767,1.2767,0,0,1.2468,1.2489,1.2521,1.2541,1.2571,1.2584,1.2591,1.2621,1.2631,1.267,1.2672,1.2698,1.2747,1.2766,1.2782,1.2826,1.2826,1.2835,1.2852,1.2874,1.2878,1.2882,1.2896,1.2901,1.2839,1.2839,1.2839,0,1.248,1.2525,1.2538,1.2569,1.2587,1.2592,1.2624,1.2642,1.2679,1.2691,1.2684,1.2745,1.2764,1.2809,1.282,1.2833,1.2841,1.2831,1.2877,1.2881,1.2884,1.2898,1.2903,1.2839,1.2839,1.2839,1.2839,0,1.2537,1.2568,1.2591,1.2626,1.2647,1.2679,1.2695,1.2715,1.272,1.2733,1.2772,1.2794,1.2826,1.2838,1.2843,1.2883,1.2878,1.2874,1.2861,1.289,1.2903,1.2908,1.284,1.284,1.284,1.284,0,0,1.2579,1.2621,1.2629,1.2644,1.2677,1.27,1.2732,1.2763,1.2778,1.2804,1.2829,1.287,1.2866,1.2884,1.2892,1.2911,1.2942,1.2904,1.2905,1.2909,1.2985,1.2987,1.2993,1.2942,1.2943,1.2944,1.2982,0,1.2619,1.2675,1.2687,1.2735,1.2763,1.2767,1.2794,1.2816,1.2829,1.2853,1.2867,1.2896,1.2889,1.2899,1.2919,1.2934,1.2957,1.2931,1.2964,1.2965,1.2956,1.3,1.3003,1.3037,1.2987,1.2988,1.2989,0,1.2674,1.27,1.2751,1.2778,1.279,1.2814,1.2843,1.2867,1.2892,1.29,1.2919,1.2924,1.2956,1.2942,1.2984,1.2966,1.2981,1.299,1.2992,1.2994,1.2978,1.3002,1.3049,1.3054,1.2997,1.2997,1.2996,0,1.2697,1.2745,1.2781,1.2795,1.2828,1.2845,1.2859,1.2883,1.29,1.2925,1.2936,1.2965,1.298,1.3001,1.3013,1.3002,1.3053,1.3041,1.306,1.3059,1.3069,1.3068,1.3118,1.3081,1.3081,1.3081,1.3081,0,1.274,1.277,1.2792,1.2814,1.2848,1.2861,1.2893,1.2908,1.2928,1.2952,1.2958,1.298,1.2995,1.3019,1.3029,1.3061,1.3068,1.3074,1.3076,1.3073,1.3072,1.3082,1.3079,1.3082,1.3082,1.3082,1.3081,0,1.2771,1.2787,1.2827,1.2855,1.2862,1.2886,1.2909,1.293,1.2943,1.2973,1.2981,1.3001,1.3029,1.3043,1.3079,1.3085,1.3121,1.3122,1.3113,1.3113,1.313,1.3128,1.3186,1.3194,1.3153,1.3154,1.3154,0,1.2797,1.282,1.2851,1.2867,1.2882,1.2909,1.2927,1.294,1.2958,1.2987,1.3004,1.3033,1.3057,1.3101,1.3118,1.3145,1.3146,1.3165,1.315,1.3145,1.3144,1.3142,1.3144,1.3167,1.3167,1.3168,1.3168,0,1.284,1.2847,1.2872,1.29,1.2921,1.2944,1.2966,1.298,1.2996,1.3016,1.3045,1.3063,1.3099,1.3127,1.3155,1.3169,1.317,1.3172,1.3178,1.3174,1.3167,1.3169,1.3118,1.3171,1.317,1.317,1.317,1.317,1.2868,1.2889,1.2913,1.2941,1.2959,1.2979,1.3,1.3015,1.304,1.307,1.3076,1.3107,1.3129,1.3167,1.3182,1.3205,1.3201,1.3209,1.3211,1.3212,1.3212,1.3164,1.321,1.321,1.321,1.321,1.321,0,1.291,1.2926,1.2952,1.2983,1.3004,1.3005,1.3029,1.3047,1.3074,1.3095,1.3118,1.315,1.3177,1.3196,1.3223,1.3238,1.3239,1.3244,1.3242,1.3245,1.3215,1.3207,1.3242,1.3242,1.3242,1.3242,1.3242,1.3242,1.2935,1.2968,1.2978,1.302,1.3035,1.3065,1.3079,1.3097,1.3114,1.315,1.3172,1.3185,1.3205,1.3233,1.3257,1.3262,1.327,1.3275,1.328,1.3251,1.3248,1.3244,1.3237,1.3278,1.3278,1.3308,1.3308,1.3308]},{"header":{"parameterUnit":"m.s-1","parameterCategory":1,"la1":30.2991,"la2":30.254,"lo1":-89.0895,"lo2":-89.0444,"dy":0.0017,"dx":0.0017,"nx":28,"ny":28,"refTime":"2024-06-08T09:00:00:Z","depth":0,"parameterNumber":3,"parameterNumberName":"V-component_of_WINDS"},"data":[0,0,0,0,0,0,0,0,0,0,0,0,0,0,0,0,0,0,0,0,0,0,0,0,0,0,0,0,0,0,0,0,0,0,0,0,0,0,0,0,0,0,0,0,0,0,0,0,0,0,0,0,0,0,0,0,0,0,4.1188,4.1188,0,4.1201,4.1201,4.1201,4.1124,4.1122,4.112,4.1118,4.1131,4.1133,4.1135,0,0,0,0,0,0,0,0,0,0,0,0,0,4.1094,4.1096,4.1188,4.1188,4.1188,4.1201,4.1201,4.1201,4.1124,4.1122,4.1119,4.1117,4.113,4.1133,4.1135,0,0,0,0,0,0,0,0,0,0,0,0,0,4.1124,4.1097,4.1188,4.1151,4.1148,4.1201,4.1201,4.1201,4.1125,4.1122,4.1118,4.1115,4.1129,4.1132,4.1136,4.1224,0,0,4.1147,4.1148,0,0,0,0,0,0,0,0,4.1122,4.1127,4.1156,4.1154,4.115,4.1157,4.1173,4.1209,4.1126,4.1134,4.1117,4.1114,4.1142,4.1144,4.1154,4.1225,4.1225,4.1147,4.1149,4.1151,4.1152,0,0,0,0,0,0,0,4.112,4.1126,4.1193,4.1157,4.1153,4.1134,4.1134,4.1179,4.1156,4.1133,4.1127,4.113,4.114,4.1151,4.1154,4.1225,4.1147,4.115,4.1152,4.1154,4.1365,4.1368,0,0,0,0,0,0,4.1123,4.1125,4.1192,4.1193,4.1128,4.1138,4.1139,4.1159,4.1156,4.1152,4.1133,4.1126,4.1146,4.115,4.1154,4.1254,4.1151,4.1154,4.1156,4.1362,4.1366,4.137,0,0,0,0,0,0,4.1122,4.113,4.1192,4.1158,4.1164,4.1143,4.1166,4.1161,4.1171,4.1155,4.1151,4.1148,4.1144,4.1149,4.1206,4.1254,4.1156,4.1159,4.1358,4.1363,4.1368,4.1457,0,0,0,0,0,0,4.1119,4.113,4.1164,4.1159,4.1166,4.1245,4.1169,4.1163,4.1178,4.1169,4.1169,4.1165,4.1142,4.1201,4.121,4.1257,4.1162,4.1353,4.136,4.1366,4.145,4.1465,4.1478,0,0,0,0,0,4.1116,4.1189,4.1166,4.1175,4.1208,4.1248,4.1252,4.1223,4.1182,4.1215,4.1204,4.1165,4.1248,4.1208,4.1217,4.1266,4.135,4.1358,4.1366,4.1444,4.1462,4.1477,0,0,0,0,0,0,4.1201,4.1188,4.1162,4.1236,4.1244,4.1235,4.1276,4.1244,4.1263,4.1255,4.1218,4.1218,4.1281,4.1279,4.1236,4.1349,4.1291,4.1301,4.1348,4.1365,4.1379,4.1377,4.1165,0,0,0,0,0,4.1228,4.1262,4.1249,4.1315,4.132,4.1298,4.1314,4.1291,4.1297,4.13,4.1294,4.1301,4.1328,4.1347,4.1371,4.145,4.1447,4.1487,4.1501,4.1513,4.1521,4.156,4.1577,4.1395,4.1395,4.1395,0,0,4.1285,4.1282,4.1306,4.1332,4.1335,4.1369,4.1301,4.1341,4.1366,4.1306,4.1359,4.1355,4.136,4.1428,4.1458,4.1428,4.1571,4.1523,4.1532,4.1534,4.1569,4.1587,4.1602,4.14,4.1399,4.1399,0,0,4.1405,4.1408,4.1461,4.1465,4.1471,4.1455,4.1468,4.1464,4.1458,4.1511,4.1466,4.1495,4.1543,4.1548,4.1556,4.1676,4.164,4.1685,4.1757,4.1795,4.1809,4.1822,4.1862,4.1877,4.1694,4.1694,4.1695,0,4.1475,4.1525,4.1493,4.1536,4.1547,4.1494,4.1547,4.1553,4.1566,4.1575,4.1542,4.1599,4.16,4.1666,4.1695,4.1705,4.1717,4.1684,4.181,4.1822,4.1833,4.1871,4.1887,4.17,4.1699,4.1699,4.1698,0,4.1609,4.1645,4.1688,4.17,4.1717,4.1765,4.1739,4.176,4.1735,4.1722,4.1775,4.1773,4.1795,4.1809,4.1786,4.1872,4.1854,4.1816,4.1757,4.1856,4.1891,4.1906,4.1707,4.1705,4.1704,4.1702,0,0,4.1784,4.1776,4.1793,4.1796,4.1797,4.1823,4.1868,4.1888,4.1906,4.1917,4.1951,4.1992,4.1957,4.1967,4.1944,4.1978,4.2069,4.1935,4.1935,4.1958,4.216,4.2187,4.2205,4.2046,4.2048,4.2051,4.2159,0,4.1899,4.1974,4.1946,4.2023,4.2053,4.2002,4.2041,4.2045,4.2034,4.2058,4.2046,4.2074,4.2027,4.2032,4.2063,4.2051,4.2109,4.2043,4.2076,4.2078,4.2074,4.2223,4.2252,4.2354,4.2173,4.2175,4.2177,0,4.2044,4.2059,4.2139,4.2131,4.2143,4.2178,4.2193,4.2217,4.222,4.2209,4.222,4.2188,4.223,4.2173,4.2228,4.2185,4.2196,4.2193,4.2196,4.2196,4.2132,4.2225,4.2387,4.2401,4.2199,4.2197,4.2195,0,4.216,4.22,4.2252,4.2257,4.225,4.2276,4.2274,4.2274,4.2287,4.23,4.2308,4.2327,4.2336,4.2351,4.2325,4.2286,4.2383,4.2325,4.2374,4.2375,4.2396,4.2395,4.2559,4.2408,4.2407,4.2407,4.2407,0,4.2291,4.2341,4.2303,4.2335,4.2389,4.2355,4.2409,4.2402,4.2401,4.243,4.2388,4.2416,4.2381,4.2405,4.2385,4.2433,4.2438,4.243,4.2423,4.2432,4.2433,4.2438,4.2429,4.2411,4.241,4.241,4.2409,0,4.2429,4.2406,4.2459,4.2447,4.2445,4.2485,4.2475,4.2503,4.2489,4.2526,4.2532,4.251,4.2536,4.2511,4.2537,4.2523,4.2586,4.2571,4.2585,4.258,4.263,4.2625,4.2802,4.2823,4.266,4.2662,4.2663,0,4.2513,4.255,4.2541,4.2557,4.2558,4.2584,4.2596,4.2564,4.2579,4.2584,4.2611,4.2633,4.2649,4.2693,4.2678,4.2697,4.268,4.2741,4.2683,4.2689,4.2678,4.2675,4.2678,4.2752,4.2754,4.2756,4.2757,0,4.2663,4.2649,4.2669,4.2684,4.27,4.2711,4.2718,4.2733,4.27,4.2718,4.2744,4.2756,4.278,4.2802,4.2816,4.2814,4.278,4.2776,4.2788,4.2796,4.2802,4.2797,4.2615,4.2771,4.277,4.2769,4.2768,4.2768,4.2775,4.2804,4.2802,4.2824,4.2826,4.2833,4.2858,4.2846,4.2866,4.2883,4.2863,4.2893,4.2893,4.2908,4.2909,4.2932,4.2907,4.2925,4.2929,4.2934,4.294,4.28,4.2935,4.2935,4.2934,4.2934,4.2934,0,4.292,4.2916,4.2937,4.2947,4.2965,4.2931,4.2936,4.2953,4.298,4.2982,4.2998,4.3026,4.3047,4.3034,4.3051,4.3072,4.3056,4.3077,4.3074,4.3074,4.2963,4.295,4.3089,4.3089,4.3089,4.3089,4.3089,4.3089,4.2998,4.3044,4.303,4.3076,4.3071,4.31,4.3106,4.3112,4.3113,4.3146,4.3162,4.3153,4.3149,4.3165,4.3182,4.3177,4.3185,4.3211,4.3201,4.3097,4.3082,4.3067,4.3054,4.3213,4.3213,4.3309,4.331,4.331]}]]